This demonstration page uses our WeatherBlox Daily Observations layout. Learn more.

Left ArrowRight Arrow

Hourly Observations for August 11, 2016

Temp ( °F °C ) Dew Point ( °F °C ) Humidity (%) Winds ( mph kmh ) Pressure ( in mb ) Visibility ( mi km ) Precip ( " mm )
12:14 am 00:14 Partly Cloudy 73 23 72 22 94 94 SSE 6 9 30.06 1018 10 16.0934 N/A
12:34 am 00:34 Clear 73 23 72 22 94 94 S 5 7 30.06 1018 10 16.0934 N/A
12:54 am 00:54 Partly Cloudy 73 23 72 22 94 94 S 3 6 30.06 1018 10 16.0934 N/A
1:14 am 01:14 Clear 73 23 72 22 94 94 S 5 7 30.06 1018 10 16.0934 N/A
1:34 am 01:34 Clear 73 23 72 22 94 94 S 5 7 30.06 1018 10 16.0934 N/A
1:54 am 01:54 Clear 73 23 72 22 94 94 Calm 30.06 1018 10 16.0934 N/A
2:14 am 02:14 Clear 73 23 72 22 94 94 S 3 6 30.06 1018 10 16.0934 N/A
2:34 am 02:34 Partly Cloudy 73 23 72 22 94 94 SSE 3 6 30.06 1018 10 16.0934 N/A
2:54 am 02:54 Cloudy 73 23 72 22 94 94 SSE 5 7 30.06 1018 10 16.0934 N/A
3:14 am 03:14 Cloudy 73 23 72 22 94 94 S 5 7 30.06 1018 10 16.0934 N/A
3:34 am 03:34 Cloudy 73 23 72 22 94 94 SSE 5 7 30.06 1018 10 16.0934 N/A
3:54 am 03:54 Cloudy 73 23 72 22 94 94 SSE 6 9 30.06 1018 10 16.0934 N/A
4:14 am 04:14 Cloudy 73 23 72 22 94 94 S 3 6 30.03 1017 10 16.0934 N/A
4:34 am 04:34 Cloudy 73 23 72 22 94 94 S 5 7 30.03 1017 10 16.0934 N/A
4:54 am 04:54 Cloudy 73 23 72 22 94 94 Calm 30.03 1017 10 16.0934 N/A
5:15 am 05:15 Cloudy 73 23 72 22 94 94 S 3 6 30.03 1017 7 11.26538 N/A
5:34 am 05:34 Cloudy 73 23 72 22 94 94 S 5 7 30.03 1017 7 11.26538 N/A
5:54 am 05:54 Partly Cloudy 73 23 72 22 94 94 S 5 7 30.03 1017 7 11.26538 N/A
6:14 am 06:14 Partly Cloudy 72 22 72 22 100 100 Calm 30.03 1017 5 8.0467 N/A
6:34 am 06:34 Cloudy 72 22 72 22 100 100 S 3 6 30.03 1017 5 8.0467 N/A
6:54 am 06:54 Mostly Cloudy 72 22 72 22 100 100 Calm 30.06 1018 5 8.0467 N/A
7:15 am 07:15 Partly Cloudy 73 23 72 22 94 94 Calm 30.06 1018 4 6.43736 N/A
7:34 am 07:34 Partly Cloudy 73 23 72 22 94 94 S 5 7 30.06 1018 5 8.0467 N/A
7:54 am 07:54 Sunny 75 24 73 23 94 94 S 5 7 30.06 1018 5 8.0467 N/A
8:15 am 08:15 Sunny 75 24 73 23 94 94 S 3 6 30.06 1018 10 16.0934 N/A
8:34 am 08:34 Sunny 77 25 73 23 89 89 S 6 9 30.03 1017 10 16.0934 N/A
8:54 am 08:54 Sunny 79 26 75 24 89 89 S 5 7 30.06 1018 10 16.0934 N/A
9:14 am 09:14 Sunny 79 26 75 24 89 89 SSW 6 9 30.06 1018 10 16.0934 N/A
9:34 am 09:34 Sunny 81 27 75 24 84 84 S 7 11 30.06 1018 10 16.0934 N/A
9:54 am 09:54 Sunny 81 27 75 24 84 84 S 6 9 30.06 1018 10 16.0934 N/A
10:14 am 10:14 Sunny 82 28 75 24 79 79 SSW 6 9 30.06 1018 10 16.0934 N/A
10:34 am 10:34 Sunny 82 28 77 25 84 84 SSW 7 11 30.06 1018 10 16.0934 N/A
10:54 am 10:54 Sunny 84 29 77 25 79 79 SSW 7 11 30.03 1017 10 16.0934 N/A
11:14 am 11:14 Sunny 84 29 77 25 79 79 SSW 8 13 30.03 1017 10 16.0934 N/A
11:34 am 11:34 Partly Cloudy 86 30 77 25 75 75 SSW 7 11 30.03 1017 10 16.0934 N/A
11:55 am 11:55 Mostly Cloudy 84 29 77 25 79 79 SSW 8 13 30.03 1017 10 16.0934 N/A
12:14 pm 12:14 Mostly Cloudy 86 30 75 24 70 70 SW 8 13 30.03 1017 10 16.0934 N/A
12:34 pm 12:34 Mostly Cloudy 86 30 75 24 70 70 WSW 7 11 30.03 1017 10 16.0934 N/A
12:55 pm 12:55 Mostly Cloudy 88 31 75 24 66 66 SSW 7 11 30.03 1017 10 16.0934 N/A
1:14 pm 13:14 Partly Cloudy 86 30 77 25 75 75 SSW 8 13 30.03 1017 10 16.0934 N/A
1:34 pm 13:34 Partly Cloudy 88 31 75 24 66 66 SSW 10 17 30.03 1017 10 16.0934 N/A
1:55 pm 13:55 Partly Cloudy 88 31 75 24 66 66 SW 7 11 29.97 1015 10 16.0934 N/A
2:14 pm 14:14 Mostly Cloudy 88 31 75 24 66 66 SSW 9 15 29.97 1015 10 16.0934 N/A
2:34 pm 14:34 Mostly Cloudy 86 30 75 24 70 70 SSW 14 22 30 1016 10 16.0934 N/A
2:55 pm 14:55 Partly Cloudy 88 31 77 25 70 70 S 8 13 29.97 1015 10 16.0934 N/A
3:14 pm 15:14 Partly Cloudy 88 31 77 25 70 70 S 13 20 29.97 1015 10 16.0934 N/A
3:34 pm 15:34 Partly Cloudy 88 31 77 25 70 70 S 13 20 29.94 1014 10 16.0934 N/A
3:55 pm 15:55 Partly Cloudy 88 31 75 24 66 66 S 9 15 29.94 1014 10 16.0934 N/A
4:14 pm 16:14 Sunny 88 31 77 25 70 70 S 10 17 29.94 1014 10 16.0934 N/A
4:34 pm 16:34 Sunny 88 31 77 25 70 70 S 9 15 29.94 1014 10 16.0934 N/A
4:55 pm 16:55 Sunny 88 31 77 25 70 70 S 8 13 29.94 1014 10 16.0934 N/A
5:14 pm 17:14 Partly Cloudy 88 31 77 25 70 70 SSW 12 19 29.94 1014 10 16.0934 N/A
5:34 pm 17:34 Partly Cloudy 88 31 77 25 70 70 SSW 12 19 29.94 1014 10 16.0934 N/A
5:55 pm 17:55 Partly Cloudy 86 30 75 24 70 70 SSW 8 13 29.97 1015 10 16.0934 N/A
6:14 pm 18:14 Mostly Cloudy 88 31 75 24 66 66 SSW 12 19 29.94 1014 10 16.0934 N/A
6:34 pm 18:34 Partly Cloudy 86 30 75 24 70 70 SSW 10 17 29.94 1014 10 16.0934 N/A
6:54 pm 18:54 Partly Cloudy 86 30 75 24 70 70 SSW 9 15 29.94 1014 10 16.0934 N/A
7:14 pm 19:14 Sunny 86 30 75 24 70 70 SSW 9 15 29.94 1014 10 16.0934 N/A
7:34 pm 19:34 Sunny 84 29 73 23 70 70 SSW 13 20 29.94 1014 10 16.0934 N/A
7:54 pm 19:54 Sunny 84 29 75 24 74 74 SSW 8 13 29.91 1013 10 16.0934 N/A
8:14 pm 20:14 Sunny 82 28 75 24 79 79 S 7 11 29.91 1013 10 16.0934 N/A
8:34 pm 20:34 Sunny 82 28 75 24 79 79 SSW 3 6 29.94 1014 10 16.0934 N/A
8:54 pm 20:54 Clear 81 27 75 24 84 84 S 6 9 29.91 1013 10 16.0934 N/A
9:14 pm 21:14 Clear 79 26 73 23 84 84 S 3 6 29.94 1014 10 16.0934 N/A
9:34 pm 21:34 Clear 79 26 73 23 84 84 Calm 29.94 1014 10 16.0934 N/A
9:54 pm 21:54 Clear 79 26 73 23 84 84 Calm 29.94 1014 10 16.0934 N/A
10:14 pm 22:14 Clear 77 25 73 23 89 89 Calm 29.94 1014 10 16.0934 N/A
10:34 pm 22:34 Clear 77 25 73 23 89 89 Calm 29.94 1014 10 16.0934 N/A
10:54 pm 22:54 Clear 75 24 73 23 94 94 Calm 29.94 1014 10 16.0934 N/A
11:14 pm 23:14 Clear 75 24 72 22 89 89 Calm 29.94 1014 10 16.0934 N/A
11:35 pm 23:35 Clear 75 24 73 23 94 94 Calm 29.94 1014 10 16.0934 N/A
11:54 pm 23:54 Clear 75 24 73 23 94 94 Calm 29.94 1014 10 16.0934 N/A

Powered by AerisWeather